Location: Vesunti
(61.5000°N, 22.8333°E)
Time: 15:04:29
(UTC+00:00)

ATLAS 2AS CENTAUR R/B - Pass Details

Date: 17 February 2020
Orbit: 929 x 1283 km, 63.7° (Epoch: 26 March)

Event Time Altitude Azimuth Distance (km) Brightness Sun altitude
Exits shadow 02:23:01 45° 286° (WNW) 1,657 3.3 -26.9°
Maximum altitude 02:25:45 76° 2° (N) 1,285 3.0 -26.6°
Drops below altitude 10° 02:33:21 10° 88° (E) 3,119 6.0 -25.8°
Sets 02:36:01 0° 91° (E) 4,035 6.8 -25.5°
